TimeEDT,TemperatureF,Dew PointF,Humidity,Sea Level PressureIn,VisibilityMPH,Wind Direction,Wind SpeedMPH,Gust SpeedMPH,PrecipitationIn,Events,Conditions,WindDirDegrees,DateUTC
12:15 AM,28.4,24.8,86,30.28,10.0,SE,3.5,-,N/A,,Clear,130,2011-10-31 04:15:00
12:35 AM,30.2,24.8,80,30.28,10.0,SE,6.9,-,N/A,,Clear,130,2011-10-31 04:35:00
12:55 AM,28.4,24.8,86,30.29,10.0,SSE,5.8,-,N/A,,Clear,150,2011-10-31 04:55:00
1:15 AM,30.2,24.8,80,30.29,10.0,SE,5.8,-,N/A,,Clear,140,2011-10-31 05:15:00
1:35 AM,30.2,24.8,80,30.30,10.0,SE,3.5,-,N/A,,Clear,140,2011-10-31 05:35:00
1:55 AM,28.4,24.8,86,30.31,10.0,SE,4.6,-,N/A,,Clear,140,2011-10-31 05:55:00
2:15 AM,28.4,24.8,86,30.31,10.0,ESE,5.8,-,N/A,,Clear,110,2011-10-31 06:15:00
2:35 AM,30.2,24.8,80,30.31,10.0,ESE,5.8,-,N/A,,Clear,120,2011-10-31 06:35:00
2:55 AM,28.4,24.8,86,30.31,10.0,SE,8.1,-,N/A,,Clear,140,2011-10-31 06:55:00
3:15 AM,30.2,24.8,80,30.31,10.0,South,4.6,-,N/A,,Clear,190,2011-10-31 07:15:00
3:35 AM,28.4,24.8,86,30.32,10.0,SE,6.9,-,N/A,,Clear,140,2011-10-31 07:35:00
3:55 AM,28.4,24.8,86,30.32,10.0,SE,6.9,-,N/A,,Clear,140,2011-10-31 07:55:00
4:15 AM,28.4,24.8,86,30.32,10.0,SE,8.1,-,N/A,,Clear,130,2011-10-31 08:15:00
4:35 AM,30.2,24.8,80,30.32,10.0,SE,9.2,-,N/A,,Clear,130,2011-10-31 08:35:00
4:55 AM,30.2,24.8,80,30.33,10.0,SE,8.1,-,N/A,,Clear,130,2011-10-31 08:55:00
5:15 AM,30.2,24.8,80,30.34,10.0,ESE,10.4,-,N/A,,Clear,120,2011-10-31 09:15:00
5:35 AM,28.4,24.8,86,30.34,10.0,ESE,8.1,-,N/A,,Clear,120,2011-10-31 09:35:00
5:55 AM,28.4,23.0,80,30.34,10.0,ESE,8.1,-,N/A,,Clear,120,2011-10-31 09:55:00
6:15 AM,28.4,23.0,80,30.34,10.0,SE,9.2,-,N/A,,Clear,130,2011-10-31 10:15:00
6:35 AM,28.4,24.8,86,30.34,10.0,ESE,10.4,-,N/A,,Clear,120,2011-10-31 10:35:00
7:15 AM,26.6,21.2,80,30.35,10.0,SE,9.2,-,N/A,,Clear,130,2011-10-31 11:15:00
7:55 AM,26.6,21.2,80,30.36,10.0,SSE,8.1,-,N/A,,Clear,150,2011-10-31 11:55:00
8:15 AM,28.4,23.0,80,30.37,10.0,SE,11.5,-,N/A,,Clear,140,2011-10-31 12:15:00
8:35 AM,28.4,24.8,86,30.37,10.0,SE,9.2,-,N/A,,Clear,130,2011-10-31 12:35:00
8:55 AM,30.2,24.8,80,30.37,10.0,SE,8.1,-,N/A,,Clear,130,2011-10-31 12:55:00
9:15 AM,30.2,24.8,80,30.36,10.0,ESE,8.1,-,N/A,,Clear,120,2011-10-31 13:15:00
9:35 AM,32.0,24.8,75,30.36,10.0,SE,5.8,-,N/A,,Clear,130,2011-10-31 13:35:00
9:55 AM,33.8,26.6,75,30.36,10.0,SE,5.8,-,N/A,,Clear,140,2011-10-31 13:55:00
10:15 AM,35.6,26.6,70,30.36,10.0,Calm,Calm,-,N/A,,Clear,0,2011-10-31 14:15:00
10:35 AM,37.4,26.6,65,30.35,10.0,Calm,Calm,-,N/A,,Clear,0,2011-10-31 14:35:00
10:55 AM,39.2,28.4,65,30.36,10.0,Calm,Calm,-,N/A,,Clear,0,2011-10-31 14:55:00
11:15 AM,39.2,28.4,65,30.35,10.0,Calm,Calm,-,N/A,,Clear,0,2011-10-31 15:15:00
11:35 AM,42.8,28.4,57,30.36,10.0,Calm,Calm,-,N/A,,Clear,0,2011-10-31 15:35:00
11:55 AM,44.6,28.4,53,30.35,10.0,Calm,Calm,-,N/A,,Clear,0,2011-10-31 15:55:00
12:15 PM,44.6,26.6,49,30.34,10.0,SE,4.6,-,N/A,,Clear,140,2011-10-31 16:15:00
12:35 PM,46.4,26.6,46,30.33,10.0,Calm,Calm,-,N/A,,Clear,0,2011-10-31 16:35:00
12:55 PM,46.4,26.6,46,30.32,10.0,Calm,Calm,-,N/A,,Clear,0,2011-10-31 16:55:00
1:15 PM,48.2,24.8,40,30.32,10.0,South,6.9,-,N/A,,Clear,170,2011-10-31 17:15:00
1:35 PM,48.2,23.0,37,30.32,10.0,SSW,12.7,-,N/A,,Clear,200,2011-10-31 17:35:00
1:55 PM,48.2,24.8,40,30.31,10.0,SW,8.1,-,N/A,,Clear,220,2011-10-31 17:55:00
2:55 PM,48.2,21.2,34,30.30,10.0,South,10.4,16.1,N/A,,Clear,170,2011-10-31 18:55:00
3:15 PM,48.2,24.8,40,30.30,10.0,SSE,9.2,-,N/A,,Clear,160,2011-10-31 19:15:00
3:35 PM,48.2,23.0,37,30.30,10.0,South,8.1,-,N/A,,Clear,170,2011-10-31 19:35:00
3:55 PM,46.4,24.8,43,30.30,10.0,South,6.9,-,N/A,,Clear,170,2011-10-31 19:55:00
4:15 PM,46.4,24.8,43,30.30,10.0,SSE,5.8,-,N/A,,Clear,160,2011-10-31 20:15:00
4:35 PM,46.4,26.6,46,30.30,10.0,SSE,4.6,-,N/A,,Clear,160,2011-10-31 20:35:00
4:55 PM,44.6,28.4,53,30.30,10.0,SE,6.9,-,N/A,,Mostly Cloudy,130,2011-10-31 20:55:00
5:15 PM,44.6,28.4,53,30.30,10.0,SSE,5.8,-,N/A,,Mostly Cloudy,160,2011-10-31 21:15:00
5:35 PM,44.6,28.4,53,30.31,10.0,SE,5.8,-,N/A,,Clear,140,2011-10-31 21:35:00
5:55 PM,42.8,28.4,57,30.31,10.0,SE,6.9,-,N/A,,Clear,130,2011-10-31 21:55:00
6:15 PM,41.0,28.4,61,30.31,10.0,SE,8.1,-,N/A,,Clear,130,2011-10-31 22:15:00
6:35 PM,41.0,28.4,61,30.33,10.0,South,3.5,-,N/A,,Clear,180,2011-10-31 22:35:00
6:55 PM,42.8,28.4,57,30.34,10.0,SE,8.1,-,N/A,,Clear,130,2011-10-31 22:55:00
7:15 PM,39.2,28.4,65,30.34,10.0,SE,8.1,-,N/A,,Clear,130,2011-10-31 23:15:00
7:35 PM,39.2,28.4,65,30.34,10.0,SE,9.2,-,N/A,,Partly Cloudy,130,2011-10-31 23:35:00
7:55 PM,39.2,28.4,65,30.34,10.0,ESE,10.4,-,N/A,,Scattered Clouds,120,2011-10-31 23:55:00
8:15 PM,39.2,28.4,65,30.34,10.0,SE,8.1,-,N/A,,Overcast,140,2011-11-01 00:15:00
8:55 PM,39.2,26.6,61,30.34,10.0,SE,10.4,-,N/A,,Mostly Cloudy,140,2011-11-01 00:55:00
9:15 PM,39.2,28.4,65,30.34,10.0,SE,9.2,-,N/A,,Overcast,140,2011-11-01 01:15:00
9:35 PM,39.2,28.4,65,30.34,10.0,ESE,10.4,-,N/A,,Overcast,120,2011-11-01 01:35:00
9:55 PM,39.2,28.4,65,30.34,10.0,ESE,9.2,-,N/A,,Overcast,120,2011-11-01 01:55:00
10:15 PM,39.2,28.4,65,30.34,10.0,SE,8.1,-,N/A,,Overcast,140,2011-11-01 02:15:00
10:35 PM,39.2,28.4,65,30.34,10.0,SE,8.1,-,N/A,,Overcast,140,2011-11-01 02:35:00
10:55 PM,39.2,28.4,65,30.33,10.0,SE,9.2,-,N/A,,Mostly Cloudy,140,2011-11-01 02:55:00
11:15 PM,39.2,28.4,65,30.33,10.0,SE,9.2,-,N/A,,Partly Cloudy,140,2011-11-01 03:15:00
11:35 PM,39.2,28.4,65,30.33,10.0,SSE,5.8,-,N/A,,Clear,150,2011-11-01 03:35:00
11:55 PM,39.2,28.4,65,30.33,10.0,SE,6.9,-,N/A,,Clear,130,2011-11-01 03:55:00